Location: Étouvelles
(49.5207°N, 3.5808°E)
Time: 23:57:38
(UTC+00:00)

ATLAS CENTAUR R/B - Pass Details

Date: 03 February 2023
Orbit: 450 x 653 km, 64.7° (Epoch: 19 March)

Event Time Altitude Azimuth Distance (km) Brightness Sun altitude
Rises 18:54:57 0° 267° (W) 2,964 6.6 -21.4°
Reaches altitude 10° 18:57:51 10° 285° (WNW) 2,032 5.3 -21.8°
Maximum altitude 19:01:14 20° 332° (NNW) 1,457 3.7 -22.4°
Enters shadow 19:03:30 14° 9° (N) 1,708 3.7 -22.8°
